Date,TemperatureHighF,TemperatureAvgF,TemperatureLowF,DewpointHighF,DewpointAvgF,DewpointLowF,HumidityHigh,HumidityAvg,HumidityLow,PressureMaxIn,PressureMinIn,WindSpeedMaxMPH,WindSpeedAvgMPH,GustSpeedMaxMPH,PrecipitationSumIn
2013-4-1,54.8,48.9,44.0,48.0,38.3,32.0,97,69,47,30.11,29.96,11,4,0,0.01
2013-4-2,55.4,43.6,34.3,32.0,21.0,11.0,73,45,24,30.26,30.10,11,4,0,0.00
2013-4-3,51.5,43.6,36.6,27.0,24.7,22.0,63,48,36,30.35,30.22,10,2,0,0.00
2013-4-4,42.3,35.1,30.4,36.0,31.3,25.0,98,87,50,30.32,30.09,8,2,0,0.59
2013-4-5,54.1,43.5,34.8,40.0,34.8,29.0,99,76,40,30.23,30.07,12,5,0,0.01
2013-4-6,59.7,50.0,43.1,33.0,30.6,27.0,60,48,32,30.33,30.23,7,2,0,0.00
2013-4-7,60.6,53.0,44.1,43.0,38.3,26.0,68,58,47,30.32,30.23,6,2,0,0.00
2013-4-8,65.5,57.6,52.0,50.0,47.5,43.0,85,69,53,30.25,30.18,8,2,0,0.00
2013-4-9,72.0,61.9,56.5,54.0,51.6,50.0,81,70,51,30.28,30.19,8,1,0,0.00
2013-4-10,76.5,65.5,58.9,55.0,52.9,50.0,81,65,43,30.21,30.02,6,1,0,0.00
2013-4-11,65.2,60.8,55.5,60.0,54.6,51.0,98,81,63,30.02,29.75,10,2,0,1.47
2013-4-12,62.8,56.0,46.8,56.0,44.3,32.0,99,69,33,29.95,29.70,13,5,0,0.54
2013-4-13,63.4,53.6,44.3,35.0,30.7,24.0,70,45,23,30.16,29.96,12,6,0,0.00
2013-4-14,59.9,52.9,46.7,46.0,37.6,29.0,96,59,40,30.17,30.01,11,2,0,0.25
2013-4-15,64.8,54.5,46.5,56.0,51.6,46.0,98,90,72,30.29,30.03,6,1,0,0.08
2013-4-16,69.4,60.1,53.6,59.0,55.4,53.0,99,85,68,30.38,30.27,5,1,0,0.00
2013-4-17,70.8,61.0,56.6,61.0,56.3,53.0,94,85,66,30.31,30.18,10,1,0,0.65
2013-4-18,66.2,59.9,55.9,58.0,56.2,51.0,98,88,68,30.20,30.03,6,1,0,0.00
2013-4-19,59.2,53.1,36.4,59.0,50.4,31.0,99,91,53,30.02,29.82,17,5,0,1.15
2013-4-20,53.2,41.0,31.2,31.0,23.8,15.0,82,54,24,30.42,30.00,23,8,0,0.00
2013-4-21,56.1,46.4,41.0,36.0,28.9,24.0,74,52,39,30.51,30.41,14,3,0,0.00
2013-4-22,60.0,47.4,37.6,39.0,35.6,31.0,87,66,43,30.47,30.32,7,2,0,0.00
2013-4-23,64.2,51.7,41.2,44.0,34.7,25.0,73,53,40,30.37,30.23,8,1,0,0.00
2013-4-24,59.4,54.6,52.1,54.0,49.5,44.0,96,83,73,30.25,30.14,7,2,0,0.05
2013-4-25,61.1,50.4,36.2,52.0,27.6,7.0,97,52,12,30.42,30.16,11,4,0,0.00
2013-4-26,62.7,52.4,44.0,39.0,30.2,24.0,59,43,32,30.50,30.41,7,2,0,0.01
2013-4-27,53.3,47.5,43.6,47.0,44.0,38.0,97,88,56,30.46,30.32,5,0,0,0.48
2013-4-28,52.1,48.1,44.1,52.0,47.2,44.0,99,97,87,30.34,30.15,7,2,0,2.10
2013-4-29,65.0,55.3,47.9,54.0,50.4,47.0,100,85,61,30.18,30.04,6,1,0,0.05
2013-4-30,67.5,58.6,52.6,54.0,50.9,47.0,92,76,56,30.21,30.06,7,1,0,0.00